Погода в Торонто

Канада     43°41′03″N   79°25′52″W
темп.,
°C
ветер,
м/с
пор.,
м/с
влажн.,
%
обл.,
%
осадки,
мм/ч
давл.,
гПа
погр.,
м
21 января, чт
чт2101:00−3ююз51370100 0.0 10071123
04:00−2юз61382100 0.2 10031114
07:00−2зюз41272100 0.3 1001964
10:00−1юз4107899 0.0 1000936
13:00+2зюз5107299 0.0 9991198
16:00+1зюз51075100 0.1 9991059
19:000зюз31080100 0.1 999962
22:000з5137565 0.0 1000762
22 января, пт
пт2201:00−1з4117863 0.0 1001660
04:00−1з41177100 0.0 1002818
07:00−2зсз51067100 0.0 10041049
10:00−3зсз696733 0.0 10081085
13:00−3зсз6114858 0.0 10101420
16:00−4зсз595251 0.0 10121363
19:00−5сз5105666 0.0 10151235
22:00−7сз610550 0.0 10171117
23 января, сб
сб2301:00−9ссз46675 0.0 1018602
04:00−11ссз376736 0.0 1021482
07:00−12ссз486932 0.0 1023455
10:00−12ссз476316 0.0 1025451
13:00−9сз36568 0.0 1026745
16:00−7сз365869 0.0 1026882
19:00−8сз466281 0.0 1028745
22:00−9сз376215 0.0 1028537
24 января, вс
вс2401:00−9ссз25697 0.0 1027397
04:00−10ссз247175 0.0 1026338
07:00−10ссз136684 0.0 1025304
10:00−8ссз1159100 0.0 1025348
13:00−6зсз1151100 0.0 1023480
16:00−5ссв0152100 0.0 1021544
19:00−5в115595 0.0 1021453
22:00−5вюв115679 0.0 1021399
25 января, пн
пн2501:00−5всв115976 0.0 1021138
04:00−6св12658 0.0 1020105
07:00−6всв11684 0.0 102154
10:00−5в126855 0.0 1021253
13:00−2юв125833 0.0 1019511
16:00−3юв236028 0.0 1018524
19:00−4в236514 0.0 1018332
22:00−4в146434 0.0 1018279